Weather in Padstow

United Kingdom     50°32′26″N   4°56′13″W
temp.,
°C
wind,
m/s
gust,
m/s
humid.,
%
clouds,
%
prec.,
mm/h
press.,
hPa
HPBL,
m
19 april, mon
mon1901:00+6se237049 0.0 102477
04:00+5se33705 0.0 102285
07:00+5se337370 0.0 102292
10:00+10se457067 0.0 1022601
13:00+11sse456635 0.0 1021465
16:00+11sse556879 0.0 1020515
19:00+10sse447594 0.0 1020412
22:00+7se3378100 0.0 1020108
20 april, tue
tue2001:00+7se2274100 0.0 102090
04:00+7se2272100 0.0 101978
07:00+7ese1167100 0.0 101964
10:00+9e1159100 0.0 1020223
13:00+10nnw226373 0.0 1020467
16:00+11n3265100 0.0 1019406
19:00+10n3368100 0.0 1020141
22:00+8ene237262 0.0 102082
21 april, wed
wed2101:00+7ese227458 0.0 102053
04:00+8ese227393 0.0 102051
07:00+8ese227196 0.0 101958
10:00+11ese237294 0.0 1020206
13:00+12ese357670 0.5 1020399
16:00+13se796533 0.5 1019461
19:00+12ese69761 0.5 1020319
22:00+8e614850 0.0 1021467
22 april, thu
thu2201:00+8e815872 0.0 1021553
04:00+7e915790 0.0 1021464
07:00+6ese915790 0.0 1021377
10:00+9ese912680 0.0 1022524
13:00+11ese912670 0.0 1022551
16:00+12ese912650 0.0 1022483
19:00+10ese914630 0.0 1022543
22:00+8ese1017570 0.0 1022470
23 april, fri
fri2301:00+8ese1016690 0.0 1022482
04:00+7ese1117810 0.0 1021481
07:00+8ese1117810 0.0 1020551
10:00+11ese1117720 0.0 1020693
13:00+13ese1217600 0.0 1019725
16:00+12ese1217615 0.0 1018647
19:00+11ese121868100 0.0 1018498
22:00+10ese111962100 0.0 1018474